{"data":{"norad_id":58519,"epoch":"2026-09-19T21:57:32.516352Z","epoch_age_seconds":197512,"freshness":"STALE","line1":"1 58519U 23191M   26262.91495968  .00001417  00000+0  60997-4 0  9990","line2":"2 58519  43.0021  86.6607 0001291 269.5049  90.5654 15.27579821155176","mean_motion":15.27579821,"eccentricity":0.0001291,"inclination_deg":43.0021,"raan_deg":86.6607,"arg_perigee_deg":269.5049,"mean_anomaly_deg":90.5654,"bstar":6.0997e-5,"rev_number":15517,"period_min":94.266759759718,"perigee_km":482.16385283591,"apogee_km":483.9354112243,"semimajor_km":6861.1866320301,"source":"CELESTRAK","updated_at":"2026-09-21T09:00:33.908959Z"}}